{"data":{"norad_id":42835,"intl_designator":"2017-042L","name":"WNISAT 1R","alt_names":[],"object_type":"PAYLOAD","status":"ACTIVE","operator":null,"country":"JPN","launch_date":"2017-07-14","launch_site_code":"TYMSC","launch_vehicle":null,"mission":null,"orbit_class":"UNKNOWN","rcs_meters":null,"size_class":null,"mass_kg":null,"dimensions":null,"purposes":[],"wikipedia_slug":null,"has_3d_model":false,"image_url":null,"decayed_at":null,"tle_current":{"epoch":"2026-05-24T23:17:16.560384Z","epoch_age_seconds":74226,"freshness":"FRESH","line1":"1 42835U 17042L   26144.97033056  .00002020  00000+0  15998-3 0  9994","line2":"2 42835  97.4816 301.9268 0009424 237.3383 122.6934 15.01639346483028","mean_motion":15.01639346,"eccentricity":0.0009424,"inclination_deg":97.4816,"raan_deg":301.9268,"arg_perigee_deg":237.3383,"mean_anomaly_deg":122.6934,"bstar":0.00015998,"rev_number":48302,"period_min":95.89519639558,"perigee_km":555.30057565351,"apogee_km":568.3810458312,"semimajor_km":6939.9778107424,"source":"CELESTRAK","updated_at":"2026-05-25T13:37:55.714709Z"}}}